Find Starlink 36356

NORAD ID: 68242 Int'l Des: 2026-054 Owner: SPXS Country: US Constellation: starlink operational
LEOCIRCULAR

实时位置

正在加载3D地球...

关于 Starlink 36356

正在加载描述...

即将过境

Passes for default location (London). Set your location on the main map for personalized predictions.

高度历史

Loading altitude history...

两行轨道根数

1 68242U 26054L 26122.16670139 -.01895893 00000-0 -41939-1 0 9997
2 68242 53.1599 48.7000 0001161 68.9012 51.9503 15.46447961 5948
Epoch: May 2, 2026 • Age: 10 hours

当前状态

高度 451.2 km
速度 7.64 km/s
星下点 -52.88°S, 103.39°W
发射日期 Mar 17, 2026
运行时间 0.1 years
类型 internet

技术详情

分类 Payload
质量 575.00 kg
干质量 530.00 kg
总质量 575.00 kg
长度 0.30 m
直径 4.10 m
跨度 29.00 m
形状 Box + pan
制造商 SPXS
平台类型 Starlink V2MO
阶段状态 In Orbit
所有者/国家 SPXS/US

Most Searched